This is the latest recevied weather packets stored in our database for station/object KI5MKI. If no packets are shown the sender has not sent any weather packets the latest 10 day(s).
| Time | Temp. | Humidity | Pressure | Rain* | Wind** | Luminosity | Snow |
|---|---|---|---|---|---|---|---|
| 1777776220 | 16.67° C | 60% | 1020.2 hPa | 0 mm | - | 0 W/m² | - |
| 1777775917 | 16.67° C | 63% | 1020.1 hPa | 0 mm | - | 0 W/m² | - |
| 1777775615 | 16.67° C | 62% | 1020.2 hPa | 0 mm | - | 0 W/m² | - |
| 1777775312 | 16.67° C | 62% | 1020.1 hPa | 0 mm | - | 0 W/m² | - |
| 1777775012 | 16.67° C | 61% | 1019.9 hPa | 0 mm | - | 0 W/m² | - |
| 1777774708 | 16.67° C | 61% | 1020 hPa | 0 mm | - | 0 W/m² | - |
| 1777774405 | 16.67° C | 60% | 1019.9 hPa | 0 mm | - | 0 W/m² | - |
| 1777774102 | 17.22° C | 61% | 1019.7 hPa | 0 mm | - | 0 W/m² | - |
| 1777773496 | 17.22° C | 60% | 1019.8 hPa | 0 mm | - | 0 W/m² | - |
| 1777772889 | 17.22° C | 58% | 1019.7 hPa | 0 mm | - | 0 W/m² | - |
| 1777771376 | 18.33° C | 55% | 1019.3 hPa | 0 mm | - | 0 W/m² | - |
| 1777770163 | 19.44° C | 48% | 1019.2 hPa | 0 mm | - | 6 W/m² | - |
| 1777769253 | 21.67° C | 47% | 1019.2 hPa | 0 mm | - | 18 W/m² | - |
| 1777768952 | 22.22° C | 45% | 1019 hPa | 0 mm | - | 23 W/m² | - |
| 1777768652 | 22.78° C | 42% | 1019 hPa | 0 mm | - | 29 W/m² | - |
| 1777768345 | 23.89° C | 40% | 1019.1 hPa | 0 mm | - | 35 W/m² | - |
| 1777768042 | 24.44° C | 42% | 1019.2 hPa | 0 mm | - | 41 W/m² | - |
| 1777767739 | 23.89° C | 41% | 1019.1 hPa | 0 mm | - | 51 W/m² | - |
| 1777767435 | 23.89° C | 37% | 1019.1 hPa | 0 mm | - | 60 W/m² | - |
| 1777767132 | 24.44° C | 38% | 1019 hPa | 0 mm | - | 73 W/m² | - |
| 1777766830 | 24.44° C | 38% | 1019.2 hPa | 0 mm | - | 87 W/m² | - |
| 1777765617 | 24.44° C | 35% | 1019.1 hPa | 0 mm | - | 139 W/m² | - |
| 1777765315 | 24.44° C | 35% | 1019.2 hPa | 0 mm | - | 149 W/m² | - |
| 1777764707 | 23.89° C | 35% | 1019.2 hPa | 0 mm | - | 186 W/m² | - |
| 1777764403 | 23.89° C | 37% | 1019.3 hPa | 0 mm | - | 203 W/m² | - |
* Rain latest hour (hover to see other rain measurements)
** Current wind speed in m/s (hover to see current wind gust speed)